TimeEDT,TemperatureF,Dew PointF,Humidity,Sea Level PressureIn,VisibilityMPH,Wind Direction,Wind SpeedMPH,Gust SpeedMPH,PrecipitationIn,Events,Conditions,WindDirDegrees,DateUTC
12:53 AM,53.1,51.1,93,30.32,5.0,Calm,Calm,-,N/A,,Clear,0,2011-10-06 04:53:00
1:53 AM,51.8,50.0,94,30.32,5.0,Calm,Calm,-,N/A,,Clear,0,2011-10-06 05:53:00
2:24 AM,51.8,48.2,88,30.33,2.5,Calm,Calm,-,N/A,,Clear,0,2011-10-06 06:24:00
2:33 AM,51.8,48.2,88,30.33,4.0,Calm,Calm,-,N/A,,Clear,0,2011-10-06 06:33:00
2:53 AM,51.1,48.9,92,30.32,3.0,Calm,Calm,-,N/A,,Clear,0,2011-10-06 06:53:00
3:27 AM,50.0,48.2,94,30.33,1.5,Calm,Calm,-,N/A,,Clear,0,2011-10-06 07:27:00
3:41 AM,50.0,48.2,94,30.33,3.0,Calm,Calm,-,N/A,,Clear,0,2011-10-06 07:41:00
3:53 AM,50.0,48.0,93,30.33,3.0,Calm,Calm,-,N/A,,Clear,0,2011-10-06 07:53:00
4:53 AM,51.1,48.9,92,30.33,5.0,Calm,Calm,-,N/A,,Clear,0,2011-10-06 08:53:00
5:06 AM,50.0,48.2,94,30.34,1.8,Calm,Calm,-,N/A,,Clear,0,2011-10-06 09:06:00
5:18 AM,50.0,48.2,94,30.34,3.0,Calm,Calm,-,N/A,,Clear,0,2011-10-06 09:18:00
5:36 AM,50.0,48.2,94,30.34,1.8,Calm,Calm,-,N/A,,Clear,0,2011-10-06 09:36:00
5:49 AM,50.0,48.2,94,30.35,3.0,Calm,Calm,-,N/A,,Clear,0,2011-10-06 09:49:00
5:53 AM,50.0,48.0,93,30.35,6.0,Calm,Calm,-,N/A,,Clear,0,2011-10-06 09:53:00
6:53 AM,50.0,46.9,89,30.35,8.0,Calm,Calm,-,N/A,,Clear,0,2011-10-06 10:53:00
6:57 AM,50.0,46.4,87,30.35,8.0,Calm,Calm,-,N/A,Fog,Patches of Fog,0,2011-10-06 10:57:00
7:18 AM,50.0,46.4,87,30.36,2.5,Calm,Calm,-,N/A,Fog,Patches of Fog,0,2011-10-06 11:18:00
7:27 AM,50.0,46.4,87,30.36,5.0,Calm,Calm,-,N/A,Fog,Patches of Fog,0,2011-10-06 11:27:00
7:53 AM,50.0,48.0,93,30.37,6.0,Calm,Calm,-,N/A,Fog,Patches of Fog,0,2011-10-06 11:53:00
8:53 AM,55.0,50.0,83,30.38,10.0,Calm,Calm,-,N/A,Fog,Patches of Fog,0,2011-10-06 12:53:00
9:53 AM,60.1,52.0,75,30.38,10.0,Calm,Calm,-,N/A,,Clear,0,2011-10-06 13:53:00
10:53 AM,64.0,54.0,70,30.38,10.0,Calm,Calm,-,N/A,,Clear,0,2011-10-06 14:53:00
11:53 AM,66.9,53.1,61,30.37,10.0,Calm,Calm,-,N/A,,Clear,0,2011-10-06 15:53:00
12:53 PM,70.0,54.0,57,30.35,10.0,Calm,Calm,-,N/A,,Unknown,0,2011-10-06 16:53:00
1:53 PM,-9999,-9999,N/A,30.34,-9999.0,North,-9999.0,-,N/A,,Unknown,0,2011-10-06 17:53:00
3:53 PM,73.0,53.1,49,30.32,10.0,North,4.6,-,N/A,,Clear,10,2011-10-06 19:53:00
4:53 PM,73.0,53.1,49,30.32,10.0,NNE,3.5,-,N/A,,Clear,20,2011-10-06 20:53:00
5:53 PM,71.1,53.1,53,30.32,10.0,North,3.5,-,N/A,,Clear,360,2011-10-06 21:53:00
6:53 PM,68.0,54.0,61,30.32,10.0,Calm,Calm,-,N/A,,Clear,0,2011-10-06 22:53:00
7:53 PM,62.1,55.0,78,30.33,10.0,Calm,Calm,-,N/A,,Clear,0,2011-10-06 23:53:00
8:53 PM,60.1,54.0,80,30.34,10.0,Calm,Calm,-,N/A,,Clear,0,2011-10-07 00:53:00
9:53 PM,57.9,55.0,90,30.35,7.0,Calm,Calm,-,N/A,,Clear,0,2011-10-07 01:53:00
10:53 PM,55.9,53.1,90,30.36,7.0,Calm,Calm,-,N/A,,Clear,0,2011-10-07 02:53:00
11:53 PM,54.0,52.0,93,30.36,4.0,Calm,Calm,-,N/A,,Clear,0,2011-10-07 03:53:00